#timestamp,LO_Frequency,Hit,StdDev 
1591617615.5,286046996.5,N
1591617635.3,286046996.6,N
1591617655.1,286046997.5,N
1591617675.9,286046997.9,N
1591617725.7,286046996.2,E
1591617735.7,286046993.8,N
1591617755.5,286046996.2,P
1591617775.3,286046989.8,P
1591617795.2,286046986.9,Y
1591617815.0,286046997.5,P
1591617815.9,286046997.5,N
1591617835.8,286046996.0,N
1591617855.6,286046992.6,Y
1591617875.4,286046995.5,P
1591617895.3,286046997.3,P
1591617915.1,286046999.4,N
1591617935.9,286046999.0,N
1591617955.7,286047002.4,N
1591617975.5,286047002.6,N
1591617995.4,286047002.3,N
1591618015.2,286046999.7,N
1591618035.0,286047000.4,N
1591618035.9,286047000.4,N
1591618055.8,286046999.6,N
1591618075.6,286046993.6,N
1591618095.5,286046985.6,Y
1591618115.3,286046985.8,P
1591618135.1,286046983.0,N
1591618155.9,286046987.6,N
1591618175.7,286046990.7,N
1591618195.5,286046992.9,N
1591618215.4,286046994.5,N
1591618235.2,286046995.6,N
1591618255.1,286046997.1,N
1591618256.0,286047011.9,N
1591618275.8,286046997.5,N
1591618295.6,286046996.0,N
1591618315.5,286046989.1,N
1591618335.3,286046991.5,N
1591618355.1,286046990.7,N
1591618375.9,286046991.6,N
1591618395.7,286046990.1,N
1591618415.6,286046996.4,N
1591618435.4,286046996.3,N
1591618455.2,286046994.4,N
1591618475.1,286046994.3,N
1591618476.0,286046994.3,N
1591618495.8,286046993.4,N
1591618515.7,286046993.8,N
1591618535.5,286046996.1,N
1591618555.3,286046993.4,N
1591618575.2,286046994.4,N
1591618595.0,286046985.4,N
1591618595.9,286046985.4,N
1591618615.7,286046989.4,N
1591618635.6,286046991.3,N
1591618655.4,286046994.0,N
1591618675.3,286046995.9,N
1591618695.1,286046995.2,N
1591618715.8,286046996.9,N
1591618735.7,286046998.8,N
1591618755.5,286046999.0,N
1591618775.4,286047001.2,N
1591618795.2,286047001.2,N
1591618815.0,286046998.7,N
1591618815.9,286046998.7,N
1591618835.8,286046998.2,N
1591618855.6,286047000.3,N
1591618875.4,286047000.0,N
1591618895.3,286047000.1,N
1591618915.1,286047002.3,N
1591618935.9,286047000.5,N
1591618955.7,286047002.6,N
1591618975.5,286047002.8,N
1591618995.4,286047004.4,N
1591619015.2,286047004.4,N
1591619035.0,286047005.3,N
1591619036.0,286047005.3,N
1591619055.8,286047001.5,N
1591619075.6,286046997.0,N
1591619095.5,286046999.4,N
1591619115.3,286046998.3,N
1591619135.1,286046994.0,N
1591619155.9,286046994.0,N
1591619175.7,286046996.3,N
1591619195.6,286046993.7,N
1591619215.4,286046990.8,N
1591619235.2,286046990.5,N
1591619255.1,286046991.7,N
1591619256.0,286046991.7,N
1591619275.8,286046992.0,N
1591619295.6,286046992.8,N
1591619315.5,286046989.8,N
1591619335.3,286046988.5,N
1591619355.2,286046985.8,N
1591619375.9,286046983.1,Y
1591619395.7,286046986.1,P
1591619415.6,286046987.8,N
1591619435.4,286046988.3,N
1591619455.3,286046982.6,Y
1591619475.1,286046993.3,P
1591619476.0,286046993.3,P
1591619495.8,286046996.9,N
1591619515.7,286047002.5,N
1591619535.5,286047004.0,N
1591619555.3,286047003.2,N
1591619575.2,286047007.2,N
1591619595.0,286047005.5,N
1591619595.9,286047005.5,N
1591619615.8,286047003.9,N
1591619635.6,286047005.4,N
1591619655.4,286047004.9,N
1591619675.3,286047003.1,N
1591619695.1,286047003.5,N
1591619715.8,286047004.8,N
1591619735.7,286047007.5,N
1591619755.5,286047004.8,N
1591619775.4,286047006.4,N
1591619795.2,286047008.4,N
1591619815.0,286047006.3,N
1591619815.9,286047006.3,N
1591619835.8,286047006.4,N
1591619855.6,286047008.8,N
1591619875.4,286047006.1,N
1591619895.3,286047008.9,N
1591619915.1,286047006.5,N
1591619935.9,286047004.7,N
1591619955.7,286047006.9,N
1591619975.5,286047005.5,N
1591619995.4,286047007.5,N
1591620015.2,286047004.6,N
1591620035.0,286047007.2,N
1591620036.0,286047007.2,Y
1591620055.8,286047004.0,P
1591620075.6,286047001.3,N
1591620095.5,286047001.8,N
1591620115.3,286047003.6,N
1591620135.1,286047001.9,N
1591620155.9,286047003.8,N
1591620175.7,286047001.9,N
1591620195.6,286047004.0,N
1591620215.4,286047005.2,Y
1591620235.2,286047001.8,P
1591620255.1,286047003.3,P
1591620256.0,286047003.3,P
1591620275.8,286047004.1,Y
1591620295.7,286047000.4,P
1591620315.5,286046998.7,N
1591620335.3,286046999.4,N
1591620355.2,286046996.7,N
1591620375.0,286046999.6,N
1591620375.9,286046999.6,N
1591620395.7,286046999.2,N
1591620415.6,286046997.4,N
1591620435.4,286046997.5,N
1591620455.3,286046997.2,N
1591620475.1,286046995.1,N
1591620476.0,286046995.1,N
1591620495.8,286046996.9,N
1591620515.7,286046995.2,N
1591620535.5,286046996.4,N
1591620555.4,286046994.2,N
1591620575.2,286046988.0,Y
1591620595.0,286046982.2,P
1591620595.9,286046982.2,N
1591620615.8,286046983.1,N
1591620635.6,286046975.8,Y
1591620655.5,286046997.1,P
1591620675.3,286046999.0,N
1591620695.1,286046993.8,N
1591620715.9,286046986.3,N
1591620735.7,286046995.7,N
1591620755.5,286046990.2,N
1591620775.4,286046993.2,N
1591620795.2,286046994.8,N
1591620815.0,286046994.9,N
1591620816.0,286046994.9,N
1591620835.8,286047001.2,N
1591620855.6,286047000.4,N
1591620875.5,286047001.7,N
1591620895.3,286047005.9,N
1591620915.1,286047005.5,N
1591620935.9,286047005.3,N
1591620955.7,286047007.6,N
1591620975.5,286047008.4,N
1591620995.4,286047010.3,N
1591621015.2,286047010.6,N
1591621035.1,286047008.5,N
1591621036.0,286047008.5,N
1591621055.8,286047010.8,N
1591621075.6,286047005.6,N
1591621095.5,286047003.0,N
1591621115.3,286047007.3,N
1591621135.1,286047006.4,N
1591621155.9,286047006.9,N
1591621175.7,286047006.6,N
1591621195.6,286047005.6,N
